Location: Chervonnoye
(48.6000°N, 34.4000°E)
Time: 12:33:08
(UTC+00:00)

Nadezhda 1 Rocket - Pass Details

Date: 23 November 2020
Orbit: 940 x 1006 km, 83.0° (Epoch: 26 January)

Event Time Altitude Azimuth Distance (km) Brightness Sun altitude
Rises 14:54:19 0° 177° (S) 3,678 7.3 -9.8°
Reaches altitude 10° 14:56:49 10° 175° (S) 2,743 6.6 -10.2°
Maximum altitude 15:03:03 68° 94° (E) 1,075 4.0 -11.1°
Drops below altitude 10° 15:09:25 10° 14° (NNE) 2,791 6.1 -12.1°
Sets 15:11:59 0° 12° (NNE) 3,748 6.8 -12.5°
